Content
SEND FEEDBACK

Daily
Averages
Monthly
Summary
United States of America

LAWRENCE, MASSACHUSETTS


Home > North America > United States > Massachusetts
Elevation: 6 feet     Latitude: 42 42N     Longitude: 071 10W

WEATHER
 
SELECT A DAY
Number of Records: 204,379;   Date Range: 1/1/95 - 11/24/14
 
SHARE

PRINT THIS DATA

[ ← Previous Day ]
WEATHER ALMANAC - JANUARY 31, 2013
[ Next Day → ]
[ °C ]   °F
Weather ElementAverageHighLow
Temperature49 °F62.6 °F (2:52 am)30.2 °F (11:54 pm)
Dewpoint36.5 °F57.2 °F (2:52 am)12.2 °F (11:54 pm)
Humidity64.2 %87 % (9:47 am)35 % (2:54 pm)
Barometer29.24 in29.57 in (11:54 pm)28.97 in (8:54 am)
Wind Speed19.3 mph32.2 mph (1:54 pm)
Wind Gust52.9 mph (9:34 am)
Weather ElementAverage
Visibility8.1 mi
Wind DirectionWSW (236.9 °)

Weather ElementTotal
Precipitation0.39 in
Heating Degree Days18.6 (Base 65)
Averaged from 29 records on January 31, 2013
WEATHER CONDITIONS BREAKOUT
WIND DIRECTION BREAKOUT
WEATHER BY HOUR - JANUARY 31, 2013
[ °C ]   °F
Local TimeTemperatureDewpointHumidityBarometerVisibilityWind DirectionWind SpeedGust SpeedPrecipitationEventsConditions
12:54 AM61.0 °F55.9 °F83 %29.39 in9.0 miSouth (190°)13.8 mph21.9 mph0.00 inOvercast
1:54 AM62.1 °F55.9 °F80 %29.34 in7.0 miSouth (190°)17.3 mph32.2 mph0.00 inRainLight Rain
2:52 AM62.6 °F57.2 °F82 %29.26 in5.0 miSouth (190°)13.8 mph25.3 mph0.01 inRainLight Rain
2:54 AM62.1 °F57.0 °F84 %29.26 in5.0 miSouth (190°)13.8 mph25.3 mph0.01 inRainLight Rain
3:21 AM62.6 °F57.2 °F82 %29.22 in5.0 miSouth (190°)12.7 mph25.3 mph0.00 inRainLight Rain
3:54 AM62.1 °F57.0 °F84 %29.18 in8.0 miSSW (200°)17.3 mph35.7 mph0.00 inRainLight Rain
4:54 AM62.1 °F55.9 °F80 %29.11 in7.0 miSouth (190°)19.6 mph40.3 mph0.00 inRainLight Rain
5:54 AM62.1 °F55.9 °F80 %29.03 in6.0 miSouth (180°)21.9 mph41.4 mph0.10 inRainLight Rain
6:54 AM62.1 °F57.0 °F84 %29.02 in9.0 miSSW (200°)21.9 mph44.9 mph0.12 inRainLight Rain
7:54 AM61.0 °F54.0 °F78 %28.98 in10.0 miSouth (190°)12.7 mph20.7 mph0.00 inOvercast
8:54 AM61.0 °F52.0 °F72 %28.97 in10.0 miSSW (200°)15.0 mph28.8 mph0.00 inOvercast
9:34 AM50.0 °F44.6 °F82 %29.01 in4.0 miWNW (300°)23.0 mph52.9 mph0.02 inRainLight Rain
9:39 AM48.2 °F42.8 °F82 %29.03 in2.0 miWest (270°)19.6 mph39.1 mph0.05 inRainHeavy Rain
9:47 AM46.4 °F42.8 °F87 %29.04 in3.0 miWest (260°)21.9 mph32.2 mphRainRain
9:54 AM46.9 °F41.0 °F80 %29.05 in6.0 miWest (260°)20.7 mph34.5 mph0.07 inRainLight Rain
10:54 AM46.0 °F37.0 °F71 %29.11 in10.0 miWest (260°)17.3 mph27.6 mph0.01 inScattered Clouds
11:54 AM46.9 °F28.9 °F50 %29.15 in10.0 miWest (260°)29.9 mph43.7 mphMostly Cloudy
12:54 PM46.0 °F25.0 °F44 %29.18 in10.0 miWest (260°)25.3 mph40.3 mphClear
1:54 PM46.0 °F23.0 °F40 %29.21 in10.0 miWest (260°)32.2 mph43.7 mphMostly Cloudy
2:54 PM44.1 °F18.0 °F35 %29.27 in10.0 miWSW (250°)26.5 mph47.2 mphPartly Cloudy
3:54 PM42.8 °F17.6 °F36 %29.33 in10.0 miWest (280°)18.4 mph33.4 mphScattered Clouds
4:54 PM39.9 °F17.1 °F40 %29.37 in10.0 miWest (260°)19.6 mph39.1 mphMostly Cloudy
5:54 PM37.9 °F18.0 °F45 %29.42 in10.0 miWest (260°)17.3 mph33.4 mphPartly Cloudy
6:54 PM35.6 °F17.6 °F48 %29.45 in10.0 miWest (260°)12.7 mph24.2 mphPartly Cloudy
7:54 PM35.1 °F16.0 °F46 %29.49 in10.0 miWest (260°)20.7 mph34.5 mphMostly Cloudy
8:54 PM34.0 °F15.1 °F46 %29.52 in10.0 miWest (260°)18.4 mph24.2 mphClear
9:54 PM32.0 °F15.1 °F50 %29.55 in10.0 miWest (270°)20.7 mph32.2 mphClear
10:54 PM32.0 °F12.9 °F45 %29.56 in10.0 miWest (270°)17.3 mph27.6 mphClear
11:54 PM30.2 °F12.2 °F47 %29.57 in10.0 miWest (260°)17.3 mph23.0 mphClear
Hourly data recorded from KLWM, located miles away from Lawrence, Massachusetts







STORIES FROM OUR PARTNERS